Flag for USA

Past Weather in Winslow, Arizona, USA — Yesterday and Last 2 Weeks

Now
91 °F

Sunny.


Feels Like: 87 °F
Forecast: 90 / 55 °F
Wind: 5 mph from North

Location: Winslow Municipal Airport

Current Time: Jul 2, 2020 at 3:50:53 pm

Latest Report: Jul 2, 2020 at 2:56 pm


Visibility: 10 mi

Pressure: 29.86 "Hg (25.32 "Hg at 1478m altitude)

Humidity: 18%

Dew Point: 42 °F

Location of WinslowLocation

Past Weather in Winslow — Graph

°F

Winslow Temperature Yesterday

Maximum temperature yesterday: 91 °F (at 1:56 pm)
Minimum temperature yesterday: 53 °F (at 4:56 am)
Average temperature yesterday: 75 °F

High & Low Weather Summary for the Past Weeks

 TemperatureHumidityPressure
High104 °F (Jun 24, 2:56 pm)47% (Jul 1, 4:56 am)30.05 "Hg (Jul 1, 4:56 am)
Low52 °F (Jun 20, 3:56 am)5% (Jun 25, 4:56 pm)29.54 "Hg (Jun 28, 5:56 pm)
Average79 °F16%29.78 "Hg
* Reported Jun 17 2:56 pm — Jul 2 2:56 pm, Winslow. Weather by CustomWeather, © 2020

Note: Actual official high and low records may vary slightly from our data, if they occured in-between our weather recording intervals... More about our weather records

Winslow Weather History for the Previous 24 Hours

Scroll right to see more
 ConditionsComfort  
Time TempWeatherWind HumidityBarometerVisibility
2:56 pm
Thu, Jul 2
91 °FSunny.5 mph18%29.86 "Hg10 mi
1:56 pm88 °FScattered clouds.3 mph19%29.87 "Hg10 mi
12:56 pm87 °FPartly sunny.No wind21%29.89 "Hg10 mi
11:56 am89 °FSunny.9 mph19%29.90 "Hg10 mi
10:56 am84 °FSunny.No wind19%29.92 "Hg10 mi
9:56 am82 °FSunny.3 mph16%29.94 "Hg10 mi
8:56 am79 °FSunny.5 mph17%29.94 "Hg10 mi
7:56 am72 °FSunny.9 mph26%29.95 "Hg10 mi
6:56 am64 °FSunny.8 mph32%29.94 "Hg10 mi
5:56 am58 °FSunny.7 mph39%29.93 "Hg10 mi
4:56 am57 °FClear.9 mph39%29.91 "Hg10 mi
3:56 am60 °FClear.3 mph35%29.88 "Hg10 mi
2:56 am57 °FClear.10 mph37%29.87 "Hg10 mi
1:56 am59 °FClear.No wind35%29.86 "Hg10 mi
12:56 am61 °FClear.3 mph34%29.86 "Hg10 mi
11:56 pm
Wed, Jul 1
63 °FClear.6 mph33%29.86 "Hg10 mi
10:56 pm65 °FClear.3 mph31%29.85 "Hg10 mi
9:56 pm68 °FClear.9 mph28%29.85 "Hg10 mi
8:56 pm75 °FClear.9 mph24%29.83 "Hg10 mi
7:56 pm78 °FClear.14 mph21%29.81 "Hg10 mi
6:56 pm83 °FSunny.18 mph15%29.80 "Hg10 mi
5:56 pm86 °FSunny.22 mph11%29.80 "Hg10 mi
4:56 pm88 °FSunny.20 mph10%29.80 "Hg10 mi
3:56 pm89 °FSunny.23 mph11%29.79 "Hg10 mi
Weather by CustomWeather, © 2020

See weather overview